Retour au catalogue

GLOBALSTAR M072

ActifCommunicationsLEO
NORAD 31574·PAYLOAD·🇺🇸 United States

Lancé May 29, 2007 depuis Baikonur Cosmodrome

Loading…

Prochains Passages (prochaines 24 heures)

TLE

FraisSource: Space-Track

Époque: Sep 14, 2026, 15:49 UTC

1 31574U 07020D   26257.65937617 -.00000086  00000-0 -28527-4 0  9999
2 31574  51.9911 222.0455 0001322 105.9887  64.8249 11.91660083885643

Suivez GLOBALSTAR M072 en temps réel avec AllMySat

Download on the App Store